Location: Landeleau
(48.2273°N, 3.7285°W)
Time: 03:44:09
(UTC+00:00)

SL-16 R/B - Pass Details

Date: 30 March 2020
Orbit: 840 x 849 km, 71.0° (Epoch: 06 June)

Event Time Altitude Azimuth Distance (km) Brightness Sun altitude
Rises 20:13:44 0° 212° (SSW) 3,386 5.4 -15.3°
Reaches altitude 10° 20:16:10 10° 215° (SW) 2,454 4.7 -15.7°
Maximum altitude 20:21:48 72° 300° (WNW) 885 2.4 -16.5°
Drops below altitude 10° 20:27:28 10° 25° (NNE) 2,468 4.7 -17.4°
Sets 20:29:56 0° 27° (NNE) 3,407 5.4 -17.7°
